Hourly Data Report for November 15, 2020

L'ASSOMPTION
QUEBEC
Current Station Operator: ECCC - MSC

45°48'34.000" N
73°26'05.000" W
21.00 m
7014160
71524
WEW

Download Data

Hourly Data (November 2020)
Hourly Data Report for November 15, 2020
TIME
LST
Temp Definition
°C
Dew Point Definition
°C
Rel Hum Definition
%
Precip. Amount Definition
mm

Wind Dir Definition
10's deg

Wind Spd Definition
km/h
Visibility Definition
km
Stn Press Definition
kPa
Hmdx Definition


Wind Chill Definition


Weather Definition


00:00 -3.0 -4.6 89 0.0 9 3   102.19   -4 LegendNANA
01:00 -3.9 -6.0 85 0.0 9 2   102.15   -5 LegendNANA
02:00 -4.6 -6.3 88 0.0 0 1   102.18   -5 LegendNANA
03:00 -5.2 -6.3 92 0.0 30 3   102.21   -7 LegendNANA
04:00 -5.3 -6.4 92 0.0 1 2   102.17   -6 LegendNANA
05:00 -5.4 -6.5 91 0.0 1 4   102.12   -7 LegendNANA
06:00 -4.8 -6.1 91 0.0 36 3   102.09   -6 LegendNANA
07:00 -4.1 -5.7 88 0.0 3 5   101.99   -6 LegendNANA
08:00 -3.3 -5.0 88 0.0 4 4   101.92   -5 LegendNANA
09:00 -0.7 -3.4 82 0.0 7 5   101.84   -2 LegendNANA
10:00 0.4 -3.1 77 0.0 8 7   101.64     LegendNANA
11:00 0.8 -2.6 78 0.0 6 11   101.40     LegendNANA
12:00 1.5 -2.8 73 0.0 7 14   101.13     LegendNANA
13:00 2.3 -2.1 73 0.0 7 12   100.99     LegendNANA
14:00 3.3 -2.2 67 0.0 7 13   100.66     LegendNANA
15:00 4.4 -1.9 64 0.0 9 8   100.52     LegendNANA
16:00 4.5 -1.4 66 0.0 12 16   100.31     LegendNANA
17:00 4.1 0.2 76 0.2 12 12   100.10     LegendNANA
18:00 4.3 1.5 81 1.2 14 17   99.96     LegendNANA
19:00 4.2 2.5 89 2.7 13 15   99.86     LegendNANA
20:00 4.6 3.2 91 2.1 14 12   99.77     LegendNANA
21:00 5.7 4.3 90 1.6 16 23   99.76     LegendNANA
22:00 6.1 4.8 92 0.6 15 23   99.71     LegendNANA
23:00 7.1 5.0 87 0.4 16 21   99.59     LegendNANA

Notes on Data Quality.

Legend

  • E = Estimated
  • M = Missing
  • NA = Not Available*
  • [empty] = Indicates an unobserved value
Date modified: